SSH920 MDSD-TIST

Flight info

Callsign SSH920
Flight time 0h 50m
Altitude 19000
Route CDO T15 MELLA G633 MAZ RTE12 JOSHE DCT STT
Aircraft A320/M-SDE3FGHIRWY/LB1

Departure

Time 2026-04-26 18:54
Airport Las Américas International Airport (MDSD)

Arrival

Time 2026-04-26 19:44
Airport Cyril E. King Airport (TIST)
Time Latitude Longitude Altitude Speed Heading
2026-04-26 18:23 18.42945 -69.67442 68 ft 0 kts 251°
2026-04-26 18:44 18.42950 -69.67426 63 ft 4 kts 251°
2026-04-26 18:44 18.42958 -69.67400 59 ft 4 kts 252°
2026-04-26 18:44 18.42966 -69.67372 60 ft 4 kts 253°
2026-04-26 18:45 18.42971 -69.67357 61 ft 1 kts 253°
2026-04-26 18:47 18.42970 -69.67363 59 ft 3 kts 267°
2026-04-26 18:48 18.42992 -69.67387 59 ft 12 kts 310°
2026-04-26 18:48 18.43063 -69.67441 59 ft 12 kts 338°
2026-04-26 18:48 18.43136 -69.67466 56 ft 10 kts 341°
2026-04-26 18:48 18.43199 -69.67489 60 ft 9 kts 340°
2026-04-26 18:49 18.43253 -69.67510 64 ft 8 kts 340°
2026-04-26 18:49 18.43298 -69.67526 64 ft 6 kts 341°
2026-04-26 18:49 18.43347 -69.67543 64 ft 13 kts 345°
2026-04-26 18:49 18.43459 -69.67538 60 ft 16 kts 355°
2026-04-26 18:50 18.43556 -69.67571 68 ft 13 kts 340°
2026-04-26 18:50 18.43639 -69.67603 66 ft 13 kts 339°
2026-04-26 18:50 18.43740 -69.67643 66 ft 18 kts 338°
2026-04-26 18:50 18.43869 -69.67695 67 ft 22 kts 340°
2026-04-26 18:51 18.44022 -69.67757 68 ft 25 kts 338°
2026-04-26 18:51 18.44104 -69.67783 65 ft 7 kts
2026-04-26 18:51 18.44136 -69.67751 64 ft 6 kts 60°
2026-04-26 18:51 18.44150 -69.67713 61 ft 7 kts 70°
2026-04-26 18:52 18.44172 -69.67650 64 ft 12 kts 69°
2026-04-26 18:52 18.44221 -69.67566 64 ft 14 kts 39°
2026-04-26 18:52 18.44299 -69.67518 65 ft 12 kts 28°
2026-04-26 18:52 18.44361 -69.67469 67 ft 10 kts 59°
2026-04-26 18:53 18.44353 -69.67405 63 ft 9 kts 128°
2026-04-26 18:53 18.44325 -69.67387 68 ft 0 kts 162°
2026-04-26 18:53 18.44276 -69.67371 63 ft 29 kts 163°
2026-04-26 18:53 18.43788 -69.67190 64 ft 118 kts 161°
2026-04-26 18:54 18.42786 -69.66824 71 ft 183 kts 160°
2026-04-26 18:54 18.41517 -69.66346 717 ft 196 kts 162°
2026-04-26 18:54 18.40216 -69.65843 1593 ft 197 kts 160°
2026-04-26 18:54 18.38914 -69.65346 2162 ft 204 kts 162°
2026-04-26 18:55 18.37535 -69.64767 2486 ft 225 kts 149°
2026-04-26 18:55 18.36481 -69.63457 2848 ft 253 kts 114°
2026-04-26 18:55 18.35922 -69.61636 3471 ft 267 kts 108°
2026-04-26 18:55 18.35428 -69.59734 4335 ft 272 kts 107°
2026-04-26 18:56 18.34945 -69.57802 5211 ft 275 kts 107°
2026-04-26 18:56 18.34450 -69.55838 6074 ft 279 kts 107°
2026-04-26 18:56 18.33943 -69.53853 6933 ft 283 kts 107°
2026-04-26 18:56 18.33431 -69.51868 7676 ft 288 kts 107°
2026-04-26 18:57 18.32900 -69.49825 7934 ft 289 kts 107°
2026-04-26 18:57 18.32538 -69.48445 7986 ft 289 kts 107°
2026-04-26 18:57 18.31826 -69.45746 8008 ft 289 kts 107°
2026-04-26 18:57 18.31287 -69.43715 8004 ft 289 kts 107°
2026-04-26 18:58 18.30797 -69.41665 8006 ft 289 kts 100°
2026-04-26 18:58 18.30632 -69.39530 8450 ft 295 kts 96°
2026-04-26 18:58 18.30481 -69.37375 9366 ft 296 kts 96°
2026-04-26 18:58 18.30323 -69.35205 10179 ft 300 kts 96°
2026-04-26 18:59 18.30155 -69.32942 10496 ft 322 kts 96°
2026-04-26 18:59 18.29977 -69.30519 10833 ft 340 kts 96°
2026-04-26 18:59 18.29792 -69.28015 11481 ft 346 kts 96°
2026-04-26 18:59 18.29603 -69.25473 12177 ft 350 kts 96°
2026-04-26 19:00 18.29414 -69.22903 12870 ft 354 kts 96°
2026-04-26 19:00 18.29222 -69.20309 13540 ft 358 kts 96°
2026-04-26 19:00 18.29025 -69.17688 14190 ft 361 kts 96°
2026-04-26 19:00 18.28828 -69.15041 14821 ft 365 kts 96°
2026-04-26 19:01 18.28631 -69.12367 15439 ft 368 kts 96°
2026-04-26 19:01 18.28436 -69.09671 16049 ft 371 kts 96°
2026-04-26 19:01 18.28235 -69.06947 16644 ft 375 kts 96°
2026-04-26 19:01 18.28031 -69.04202 17228 ft 378 kts 96°
2026-04-26 19:02 18.27827 -69.01437 17777 ft 382 kts 96°
2026-04-26 19:02 18.27620 -68.98645 17960 ft 383 kts 96°
2026-04-26 19:02 18.27412 -68.95854 18005 ft 383 kts 96°
2026-04-26 19:02 18.27274 -68.94001 18008 ft 383 kts 96°
2026-04-26 19:03 18.26995 -68.90272 18005 ft 383 kts 96°
2026-04-26 19:03 18.26785 -68.87481 18008 ft 382 kts 96°
2026-04-26 19:03 18.26574 -68.84695 18008 ft 382 kts 96°
2026-04-26 19:03 18.26361 -68.81907 18008 ft 382 kts 96°
2026-04-26 19:04 18.26149 -68.79116 18008 ft 382 kts 96°
2026-04-26 19:04 18.25941 -68.76330 17999 ft 382 kts 96°
2026-04-26 19:04 18.25734 -68.73542 18008 ft 382 kts 96°
2026-04-26 19:04 18.25526 -68.70754 18008 ft 382 kts 96°
2026-04-26 19:05 18.25096 -68.65176 18008 ft 382 kts 96°
2026-04-26 19:05 18.24880 -68.62390 18008 ft 382 kts 96°
2026-04-26 19:05 18.24669 -68.59602 18008 ft 382 kts 96°
2026-04-26 19:06 18.24456 -68.56814 18002 ft 382 kts 96°
2026-04-26 19:06 18.24244 -68.54029 18008 ft 382 kts 96°
2026-04-26 19:06 18.24030 -68.51241 18008 ft 382 kts 96°
2026-04-26 19:06 18.23812 -68.48450 17999 ft 382 kts 96°
2026-04-26 19:07 18.23590 -68.45667 18002 ft 382 kts 96°
2026-04-26 19:07 18.23372 -68.42914 18008 ft 382 kts 96°
2026-04-26 19:07 18.23153 -68.40091 18008 ft 382 kts 96°
2026-04-26 19:07 18.22941 -68.37305 18008 ft 382 kts 96°
2026-04-26 19:08 18.22731 -68.34555 18008 ft 382 kts 96°
2026-04-26 19:08 18.22513 -68.31766 18009 ft 382 kts 96°
2026-04-26 19:08 18.22294 -68.28982 18000 ft 382 kts 96°
2026-04-26 19:08 18.22076 -68.26198 18007 ft 382 kts 96°
2026-04-26 19:09 18.21854 -68.23413 18008 ft 382 kts 96°
2026-04-26 19:09 18.21632 -68.20630 17999 ft 382 kts 96°
2026-04-26 19:09 18.21413 -68.17843 18008 ft 382 kts 96°
2026-04-26 19:09 18.21193 -68.15057 18007 ft 382 kts 96°
2026-04-26 19:10 18.20976 -68.12271 18008 ft 382 kts 96°
2026-04-26 19:10 18.20758 -68.09485 18008 ft 382 kts 96°
2026-04-26 19:10 18.20538 -68.06700 18003 ft 382 kts 96°
2026-04-26 19:10 18.20316 -68.03915 18006 ft 382 kts 96°
2026-04-26 19:11 18.20091 -68.01130 18008 ft 382 kts 95°
2026-04-26 19:11 18.20103 -67.98336 18004 ft 383 kts 87°
2026-04-26 19:11 18.20297 -67.95541 17996 ft 383 kts 87°
2026-04-26 19:11 18.20491 -67.92748 18008 ft 383 kts 87°
2026-04-26 19:12 18.20682 -67.89948 17998 ft 383 kts 87°
2026-04-26 19:12 18.20870 -67.87151 17997 ft 383 kts 87°
2026-04-26 19:12 18.21058 -67.84356 18002 ft 383 kts 87°
2026-04-26 19:12 18.21250 -67.81558 18008 ft 383 kts 87°
2026-04-26 19:13 18.21444 -67.78760 18008 ft 383 kts 87°
2026-04-26 19:13 18.21638 -67.75958 18008 ft 383 kts 87°
2026-04-26 19:13 18.21829 -67.73161 18007 ft 383 kts 87°
2026-04-26 19:13 18.22018 -67.70362 18007 ft 383 kts 87°
2026-04-26 19:14 18.22205 -67.67567 18007 ft 383 kts 87°
2026-04-26 19:14 18.22388 -67.64805 18002 ft 383 kts 87°
2026-04-26 19:14 18.22575 -67.61971 18008 ft 383 kts 87°
2026-04-26 19:14 18.22698 -67.60118 18003 ft 383 kts 87°
2026-04-26 19:15 18.22944 -67.56412 18008 ft 383 kts 87°
2026-04-26 19:15 18.23129 -67.53619 18008 ft 383 kts 87°
2026-04-26 19:15 18.23314 -67.50824 18007 ft 383 kts 87°
2026-04-26 19:15 18.23500 -67.48022 18008 ft 383 kts 87°
2026-04-26 19:16 18.23684 -67.45226 18008 ft 383 kts 87°
2026-04-26 19:16 18.23868 -67.42430 18001 ft 383 kts 87°
2026-04-26 19:16 18.24052 -67.39634 18000 ft 383 kts 87°
2026-04-26 19:16 18.24235 -67.36837 18008 ft 383 kts 87°
2026-04-26 19:17 18.24416 -67.34041 18005 ft 383 kts 87°
2026-04-26 19:17 18.24598 -67.31250 18008 ft 383 kts 87°
2026-04-26 19:17 18.24782 -67.28450 18008 ft 383 kts 87°
2026-04-26 19:17 18.24963 -67.25654 18008 ft 383 kts 87°
2026-04-26 19:18 18.25144 -67.22860 18007 ft 383 kts 87°
2026-04-26 19:18 18.25326 -67.20064 18008 ft 383 kts 87°
2026-04-26 19:18 18.25507 -67.17270 17996 ft 383 kts 87°
2026-04-26 19:18 18.25638 -67.14478 18002 ft 382 kts 92°
2026-04-26 19:19 18.25580 -67.11686 18008 ft 382 kts 92°
2026-04-26 19:19 18.25518 -67.08891 17998 ft 382 kts 92°
2026-04-26 19:19 18.25460 -67.06094 18008 ft 382 kts 92°
2026-04-26 19:19 18.25405 -67.03302 18000 ft 382 kts 92°
2026-04-26 19:20 18.25349 -67.00507 18002 ft 382 kts 92°
2026-04-26 19:20 18.25312 -66.98656 18008 ft 382 kts 92°
2026-04-26 19:20 18.25233 -66.94915 17997 ft 382 kts 92°
2026-04-26 19:20 18.25172 -66.92120 18009 ft 382 kts 92°
2026-04-26 19:21 18.25110 -66.89322 18007 ft 382 kts 92°
2026-04-26 19:21 18.25048 -66.86523 17997 ft 382 kts 92°
2026-04-26 19:21 18.24989 -66.83733 18006 ft 382 kts 92°
2026-04-26 19:21 18.24932 -66.80936 18004 ft 382 kts 92°
2026-04-26 19:22 18.24874 -66.78141 18005 ft 382 kts 92°
2026-04-26 19:22 18.24812 -66.75350 18008 ft 382 kts 92°
2026-04-26 19:22 18.24749 -66.72555 18008 ft 382 kts 92°
2026-04-26 19:22 18.24686 -66.69764 17993 ft 382 kts 92°
2026-04-26 19:23 18.24623 -66.66967 18008 ft 382 kts 92°
2026-04-26 19:23 18.24561 -66.64170 18007 ft 382 kts 92°
2026-04-26 19:23 18.24498 -66.61379 18003 ft 382 kts 92°
2026-04-26 19:23 18.24435 -66.58584 18007 ft 383 kts 92°
2026-04-26 19:24 18.24371 -66.55789 18008 ft 382 kts 92°
2026-04-26 19:24 18.24307 -66.53024 18008 ft 382 kts 92°
2026-04-26 19:24 18.24447 -66.47435 18009 ft 383 kts 86°
2026-04-26 19:25 18.24673 -66.44645 17997 ft 383 kts 86°
2026-04-26 19:25 18.24750 -66.43703 18010 ft 383 kts 86°
2026-04-26 19:25 18.25128 -66.39027 18008 ft 383 kts 86°
2026-04-26 19:25 18.25348 -66.36275 18008 ft 383 kts 86°
2026-04-26 19:26 18.25570 -66.33484 18008 ft 383 kts 86°
2026-04-26 19:26 18.25792 -66.30691 18003 ft 383 kts 86°
2026-04-26 19:26 18.26018 -66.27863 18003 ft 383 kts 86°
2026-04-26 19:26 18.26238 -66.25110 18008 ft 383 kts 86°
2026-04-26 19:27 18.26460 -66.22321 18008 ft 383 kts 86°
2026-04-26 19:27 18.26682 -66.19530 18009 ft 383 kts 86°
2026-04-26 19:27 18.26900 -66.16748 17999 ft 383 kts 86°
2026-04-26 19:27 18.27119 -66.13948 18009 ft 383 kts 86°
2026-04-26 19:28 18.27335 -66.11155 18004 ft 383 kts 86°
2026-04-26 19:28 18.27552 -66.08365 17998 ft 383 kts 86°
2026-04-26 19:28 18.27771 -66.05571 18007 ft 383 kts 86°
2026-04-26 19:28 18.27989 -66.02778 18008 ft 383 kts 86°
2026-04-26 19:29 18.28206 -65.99986 18003 ft 383 kts 86°
2026-04-26 19:29 18.28429 -65.97192 18005 ft 383 kts 86°
2026-04-26 19:29 18.28649 -65.94402 18005 ft 383 kts 86°
2026-04-26 19:29 18.28869 -65.91611 18009 ft 383 kts 86°
2026-04-26 19:30 18.29086 -65.88822 18008 ft 383 kts 86°
2026-04-26 19:30 18.29305 -65.86028 18008 ft 383 kts 86°
2026-04-26 19:30 18.29523 -65.83234 18002 ft 383 kts 86°
2026-04-26 19:30 18.29593 -65.82329 18007 ft 382 kts 86°
2026-04-26 19:31 18.29950 -65.77658 18008 ft 383 kts 86°
2026-04-26 19:31 18.30163 -65.74883 17896 ft 376 kts 86°
2026-04-26 19:31 18.30372 -65.72168 17644 ft 367 kts 86°
2026-04-26 19:31 18.30575 -65.69520 17364 ft 360 kts 86°
2026-04-26 19:32 18.30774 -65.66902 16939 ft 358 kts 86°
2026-04-26 19:32 18.30973 -65.64300 16504 ft 356 kts 86°
2026-04-26 19:32 18.31171 -65.61713 16072 ft 355 kts 86°
2026-04-26 19:32 18.31304 -65.60002 15787 ft 354 kts 87°
2026-04-26 19:33 18.31503 -65.57422 15377 ft 353 kts 87°
2026-04-26 19:33 18.31700 -65.54851 14947 ft 353 kts 87°
2026-04-26 19:33 18.31896 -65.52276 14499 ft 353 kts 87°
2026-04-26 19:33 18.32087 -65.49702 14057 ft 353 kts 87°
2026-04-26 19:34 18.32336 -65.46304 13476 ft 351 kts 87°
2026-04-26 19:34 18.32526 -65.43749 13035 ft 349 kts 86°
2026-04-26 19:34 18.32654 -65.42029 12738 ft 349 kts 86°
2026-04-26 19:34 18.32844 -65.39490 12305 ft 347 kts 86°
2026-04-26 19:35 18.33031 -65.36996 12148 ft 336 kts 86°
2026-04-26 19:35 18.33213 -65.34581 12020 ft 326 kts 86°
2026-04-26 19:35 18.33389 -65.32229 11778 ft 320 kts 86°
2026-04-26 19:35 18.33563 -65.29904 11450 ft 317 kts 86°
2026-04-26 19:36 18.33732 -65.27603 11097 ft 313 kts 86°
2026-04-26 19:36 18.33843 -65.26099 10702 ft 310 kts 86°
2026-04-26 19:36 18.34018 -65.23086 9765 ft 307 kts 95°
2026-04-26 19:36 18.33609 -65.20895 8959 ft 306 kts 107°
2026-04-26 19:37 18.33040 -65.18742 8142 ft 305 kts 107°
2026-04-26 19:37 18.32735 -65.16538 7325 ft 306 kts 88°
2026-04-26 19:37 18.33008 -65.14314 6511 ft 306 kts 84°
2026-04-26 19:37 18.33199 -65.12091 5697 ft 303 kts 89°
2026-04-26 19:38 18.33225 -65.09919 4899 ft 299 kts 91°
2026-04-26 19:38 18.33274 -65.07711 4098 ft 296 kts 89°
2026-04-26 19:38 18.33371 -65.05592 3327 ft 293 kts 89°
2026-04-26 19:38 18.33442 -65.03480 2533 ft 282 kts 96°
2026-04-26 19:39 18.32782 -65.01660 2014 ft 265 kts 133°
2026-04-26 19:39 18.31247 -65.00725 1794 ft 254 kts 169°
2026-04-26 19:39 18.29571 -65.00903 1850 ft 235 kts 203°
2026-04-26 19:39 18.28376 -65.01959 1856 ft 222 kts 237°
2026-04-26 19:40 18.27947 -65.03453 1941 ft 211 kts 266°
2026-04-26 19:40 18.28016 -65.04975 2048 ft 206 kts 271°
2026-04-26 19:40 18.28051 -65.06477 2159 ft 206 kts 269°
2026-04-26 19:40 18.28429 -65.07909 2052 ft 207 kts 309°
2026-04-26 19:41 18.29573 -65.08694 2039 ft 191 kts 345°
2026-04-26 19:41 18.30832 -65.08852 2002 ft 175 kts
2026-04-26 19:41 18.31957 -65.08558 1999 ft 161 kts 30°
2026-04-26 19:41 18.32569 -65.08114 2011 ft 157 kts 47°
2026-04-26 19:42 18.33269 -65.06891 2035 ft 144 kts 80°
2026-04-26 19:42 18.33345 -65.05864 2027 ft 141 kts 92°
2026-04-26 19:42 18.33381 -65.04832 1856 ft 141 kts 90°
2026-04-26 19:42 18.33441 -65.03806 1612 ft 140 kts 89°
2026-04-26 19:43 18.33502 -65.02770 1197 ft 145 kts 91°
2026-04-26 19:43 18.33545 -65.01694 790 ft 146 kts 90°
2026-04-26 19:43 18.33591 -65.00655 593 ft 140 kts 89°
2026-04-26 19:43 18.33643 -64.99638 371 ft 138 kts 90°
2026-04-26 19:44 18.33680 -64.98629 148 ft 138 kts 90°
2026-04-26 19:44 18.33724 -64.97638 31 ft 126 kts 88°
2026-04-26 19:44 18.33742 -64.97000 26 ft 44 kts 87°
2026-04-26 19:44 18.33753 -64.96783 21 ft 18 kts 85°
2026-04-26 19:45 18.33756 -64.96712 21 ft 5 kts 104°
2026-04-26 19:45 18.33737 -64.96688 21 ft 4 kts 142°
2026-04-26 19:45 18.33696 -64.96679 23 ft 11 kts 193°
2026-04-26 19:45 18.33673 -64.96768 24 ft 10 kts 265°
2026-04-26 19:46 18.33668 -64.96864 25 ft 13 kts 268°
2026-04-26 19:46 18.33664 -64.96949 26 ft 11 kts 268°
2026-04-26 19:46 18.33661 -64.97021 28 ft 9 kts 266°
2026-04-26 19:46 18.33657 -64.97079 26 ft 7 kts 266°
2026-04-26 19:47 18.33653 -64.97126 27 ft 6 kts 252°
2026-04-26 19:47 18.33638 -64.97144 27 ft 4 kts 216°
2026-04-26 19:47 18.33608 -64.97152 27 ft 3 kts 191°
2026-04-26 19:47 18.33594 -64.97155 27 ft 2 kts 189°
2026-04-26 19:48 18.33585 -64.97157 27 ft 2 kts 189°
2026-04-26 19:48 18.33566 -64.97160 27 ft 0 kts 189°